Hourly Data Report for September 18, 2017

All times are specified in Local Standard Time (LST). Add 1 hour to adjust for Daylight Saving Time where and when it is observed.

CAPE DORSET A
NUNAVUT

64°13'49.000" N
76°31'30.000" W
48.20 m
2400637
71366
YTE

Download Data

Hourly Data (September 2017)
Hourly Data Report for September 18, 2017
Temp Definition
°C
Dew Point Temp Definition
°C
Rel Hum Definition
%
Wind Dir Definition
10's deg

Wind Spd Definition
km/h
Visibility Definition
km
Stn Press Definition
kPa
Hmdx Definition


Wind Chill Definition


Weather Definition


TIME
00:00 Legend Double Dagger 1.1 0.5 96 24 11 16.1 101.61     LegendNANA
01:00 Legend Double Dagger 0.2 0.1 99 35 9 2.4 101.59     Fog
02:00 Legend Double Dagger 1.0 1.0 100 LegendMM 4 16.1 101.58     LegendNANA
03:00 Legend Double Dagger 1.2 0.7 97 LegendMM 4 16.1 101.58     LegendNANA
04:00 Legend Double Dagger 1.3 0.9 97 24 17 16.1 101.58     LegendNANA
05:00 Legend Double Dagger -0.1 -0.1 100 LegendMM 4 16.1 101.56   -1 LegendNANA
06:00 Legend Double Dagger 0.7 0.7 100 LegendMM 4 16.1 101.55     LegendNANA
07:00 Legend Double Dagger 1.4 1.3 99 28 9 16.1 101.52     LegendNANA
08:00 Legend Double Dagger 2.4 1.8 96 28 8 16.1 101.48     LegendNANA
09:00 Legend Double Dagger 4.1 1.6 84 22 8 16.1 101.47     LegendNANA
10:00 Legend Double Dagger 3.4 2.1 91 11 5 16.1 101.44     LegendNANA
11:00 Legend Double Dagger 4.2 2.3 88 9 5 16.1 101.40     LegendNANA
12:00 Legend Double Dagger 4.1 2.5 89 12 13 16.1 101.34     LegendNANA
13:00 Legend Double Dagger 3.6 2.3 91 11 17 16.1 101.31     LegendNANA
14:00 Legend Double Dagger 3.4 2.6 94 9 15 16.1 101.27     LegendNANA
15:00 Legend Double Dagger 2.0 1.9 99 10 17 4.8 101.25     Fog
16:00 Legend Double Dagger 0.9 0.9 100 10 17 0.4 101.21     Heavy Snow
17:00 Legend Double Dagger 0.6 0.6 100 10 18 0.6 101.17     Rain,Fog
18:00 Legend Double Dagger 0.5 0.5 100 10 15 0.4 101.14     Rain,Fog
19:00 Legend Double Dagger 0.4 0.4 100 8 17 0.6 101.09     Rain,Fog
20:00 Legend Double Dagger 0.1 0.1 100 8 18 1.2 101.05     Rain,Fog
21:00 Legend Double Dagger 0.0 0.0 100 8 22 1.2 100.99   -6 Rain,Fog
22:00 Legend Double Dagger 0.4 0.4 100 8 18 0.8 100.95     Rain,Fog
23:00 Legend Double Dagger 1.1 1.1 100 6 17 1.2 100.88     Fog

Notes on Data Quality.

Legend

  • E = Estimated
  • M = Missing
  • NA = Not Available
  • ‡ = Partner data that is not subject to review by the National Climate Archives
Date modified: